Terug naar catalogus

STARLINK-1284

ActiefCommunicatieVLEO
NORAD 45390·PAYLOAD·🇺🇸 United States

Gelanceerd Mar 18, 2020 vanaf Cape Canaveral Space Force Station

Loading…

Volgende Passages (komende 24 uur)

TLE

VersSource: CelesTrak SupGP

Epoch: Sep 14, 2026, 22:20 UTC

1 45390C 20019AG  26257.93104167  .00162660  00000+0  68219-3 0  2572
2 45390  53.0357 276.1527 0006184  17.0098 199.3853 15.84728327    16

Volg STARLINK-1284 in realtime met AllMySat

Download on the App Store